Regional Weather Roundup
Issued by NWS Newport/Morehead, NC

Current Version | Previous Version | Graphics & Text | Print | Product List | Glossary On
Versions: 1 2 3 4 5 6 7 8 9 10 11 12 13 14 15 16 17 18 19 20 21 22 23 24 25 26 27 28 29 30 31 32 33 34 35 36 37 38 39 40 41 42 43 44 45 46 47 48 49 50
000 ASUS42 KMHX 020013 RWRMHX WEATHER ROUNDUP FOR EASTERN NORTH CAROLINA NATIONAL WEATHER SERVICE NEWPORT/MOREHEAD CITY NC 800 PM EDT SUN MAY 01 2016 NOTE: "FAIR" INDICATES FEW OR NO CLOUDS BELOW 12,000 FEET WITH NO SIGNIFICANT WEATHER AND/OR OBSTRUCTIONS TO VISIBILITY NCZ015>017-031-032-045>047-102-103-020100- NORTH COAST CITY SKY/WX TMP DP RH WIND PRES REMARKS EDENTON CLEAR 72 67 83 SW10 30.00S ELIZABETH CITY CLEAR 69 64 84 SW5 29.99F KITTY HAWK PTCLDY 70 65 82 S5 30.00S MANTEO NOT AVBL $$ NCZ045>047-081-094-103-104-020100- CENTRAL COAST CITY SKY/WX TMP DP RH WIND PRES REMARKS FRISCO CLOUDY 69 65 86 S10 30.03F SWANQUARTER NOT AVBL $$ NCZ095-097-098-100-101-020100- SOUTHERN COAST CITY SKY/WX TMP DP RH WIND PRES REMARKS BEAUFORT CLOUDY 70 66 87 S10 30.04S CEDAR ISLAND NOT AVBL JACKSONVILLE CLOUDY 69 65 86 S5 30.03S PINEY ISLAND NOT AVBL WILMINGTON PTCLDY 72 67 84 S9 30.04S $$ NCZ011>013-027>030-043-044-078>080-089-090>093-098-020100- COASTAL PLAIN CITY SKY/WX TMP DP RH WIND PRES REMARKS AHOSKIE CLOUDY 69 64 86 CALM 30.00R CLINTON CLOUDY 71 68 92 CALM 30.02S ELIZABETHTOWN CLEAR 71 69 93 S5 30.02R GOLDSBORO CLOUDY 72 72 100 SW7 30.00R GREENVILLE CLOUDY 72 68 88 SW8 30.03R HAVELOCK CLOUDY 70 64 81 S9 30.04S KENANSVILLE CLOUDY 70 65 85 CALM 30.04R KINSTON CLOUDY 72 66 83 S9 30.02S NEW BERN CLOUDY 70 64 81 S8 30.03S RICHLANDS CLOUDY 69 67 93 S6 30.03S ROCKY MOUNT CLOUDY 71 65 81 S8 30.00R WASHINGTON CLOUDY 70 65 85 SW7 30.01S WHITEVILLE CLOUDY 71 68 90 S8 30.02S $$ AMZ130-135-150-152-154-156-158-170-250-252-270-ANZ085-086-088-633-658-670-020100- MARINE OBSERVATIONS STATION/POSITION TIME TEMP WIND PRES WAVE SWELL AIR SEA DIR/SP/G HT/PER HT/PER (UTC) (F) (DEG/KT/KT) (MB) (FT/S) (FT/S) CHESAPEAKE LIGHT 0000 62 190/ 16/ 17 1015.8 64 E VA BEACH 2350 59 53 190/ 14/ 16 1016.0 4/ 8 3/ 8 DUCK 2300 71 66 1015.4 2 E DUCK 2311 59 N/A 4/ 9 2/11 OREGON INLET 2300 70 65 1016.2 13E OREGON INLT 0000 59 N/A 4/ 9 3/ 9 HATTERAS CG 2300 70 67 1016.6 DIAMOND BUOY 2350 74 74 180/ 17/ 21 1016.7 4/10 3/10 CAPE LOOKOUT 0000 70 190/ 10/ 12 1017.0 BEAUFORT LAB 2300 70 67 1016.3 30 SE NEW RVR IN 2325 70 N/A 4/10 2/11 27 SE WRIGHTSVLE 2308 73 71 170/ 12/ 16 1017.9 5 SE WRIGHTSVLE 2308 71 68 200/ 8/ 10 1018.1 225 S CAPE HAT 2350 73 74 130/ 8/ 10 1020.5 4/10 5/10 41 SE CHARLESTON 2350 75 73 180/ 4/ 4 1018.2 4/ 7 3/ 7 $$

USA.gov is the U.S. government's official web portal to all federal, state and local government web resources and services.